Regional Weather Roundup
Issued by NWS

Home | Current Version | Previous Version | Graphics & Text | Print | Product List | Glossary Off
Versions: 1 2 3 4 5 6 7 8 9 10 11 12 13 14 15 16 17 18 19 20 21 22 23 24 25 26 27 28 29 30 31 32 33 34 35 36 37 38 39 40 41 42 43 44 45 46 47 48 49 50

000
ASUS43 KOAX 050310
RWRNE

WEATHER ROUNDUP FOR NEBRASKA
NATIONAL WEATHER SERVICE OMAHA NE
1000 PM CDT FRI SEP 04 2015

NOTES: SATELLITE DATA IS BEING USED TO AUGMENT CLOUD COVER ABOVE
       12000 FEET.
       "FAIR" INDICATES FEW OR NO CLOUDS BELOW 12,000 FEET WITH NO
       SIGNIFICANT WEATHER AND/OR OBSTRUCTIONS TO VISIBILITY.

  * THESE STATIONS DO NOT REPORT WEATHER SUCH AS RAIN...SNOW OR FOG.

NEZ001>004-019>022-054>056-050400-
NEBRASKA PANHANDLE

CITY           SKY/WX    TMP DP  RH WIND       PRES   REMARKS
SCOTTSBLUFF    CLOUDY    75  52  44 E3        29.87R
ALLIANCE       MOCLDY    74  48  39 SE9       29.87R
CHADRON        MOCLDY    71  50  47 CALM      29.81R
KIMBALL        MOCLDY    70  44  40 SE7       29.93R
SIDNEY         MOCLDY    76  47  35 SE8       29.91R
$$

NEZ057>060-069>072-079>082-050400-
SOUTHWEST NEBRASKA

CITY           SKY/WX    TMP DP  RH WIND       PRES   REMARKS
NORTH PLATTE   MOCLDY    70  62  76 E6        29.85R
IMPERIAL       MOCLDY    75  55  49 SE5       29.86R
LEXINGTON      PTCLDY    78  65  65 SE6       29.84R
MCCOOK         PTCLDY    85  56  37 S13       29.83R
OGALLALA       PTCLDY    74  59  58 E3        29.86S
$$

NEZ005>010-023>029-035>040-094-050400-
NORTH CENTRAL NEBRASKA

CITY           SKY/WX    TMP DP  RH WIND       PRES   REMARKS
VALENTINE      MOCLDY    81  62  52 S12       29.82R
BROKEN BOW     PTCLDY    71  66  84 N3        29.84R
O`NEILL        PTCLDY    78  70  75 SE8       29.84R
ORD            CLEAR     74  67  78 E3        29.83R
THEDFORD       PTCLDY    76  64  64 SE8       29.86S
$$

NEZ041-046>049-061>064-073>077-083>087-050400-
SOUTH CENTRAL NEBRASKA

CITY           SKY/WX    TMP DP  RH WIND       PRES   REMARKS
GRAND ISLAND   CLEAR     80  66  62 SE13      29.86R
AURORA         CLEAR     79  66  64 SE13G18   29.87R
HASTINGS       CLEAR     82  65  56 S13       29.87R
HEBRON         CLEAR     81  64  55 S12G18    29.89R
HOLDREGE       CLEAR     84  59  42 S16       29.86R
KEARNEY *      CLEAR     79  63  57 SE13      29.85R
YORK           CLEAR     79  66  65 S13       29.88R
$$

NEZ011>018-030>034-042>045-050400-
NORTHEAST NEBRASKA

CITY           SKY/WX    TMP DP  RH WIND       PRES   REMARKS
NORFOLK        CLEAR     79  67  66 SE10      29.85R
ALBION         CLEAR     77  67  71 SE9       29.86R
BLAIR          PTCLDY    81  65  58 S15       29.91R
COLUMBUS *     CLEAR     79  64  61 SE7       29.87R
FREMONT        CLEAR     81  66  60 SE14      29.89R
TEKAMAH        PTCLDY    77  70  79 SE10      29.88R
WAYNE          CLEAR     77  70  80 SE10      29.87R
$$

NEZ050>053-065>068-078-088>093-050400-
SOUTHEAST NEBRASKA

CITY           SKY/WX    TMP DP  RH WIND       PRES   REMARKS
LINCOLN        CLEAR     82  66  58 SE14      29.89R
OMAHA EPPLEY   MOCLDY    82  69  64 SE17      29.90R
BEATRICE       CLEAR     80  67  65 SE9       29.90R
FALLS CITY     CLEAR     76  68  76 SE7       29.93R
NEBRASKA CITY  CLEAR     78  61  57 S12       29.93R
PLATTSMOUTH    PTCLDY    77  65  67 SE10      29.92R
$$

NEZ044-045-051>053-067-050400-
OMAHA AREA

CITY           SKY/WX    TMP DP  RH WIND       PRES   REMARKS
OMAHA EPPLEY   MOCLDY    82  69  64 SE17      29.90R
BLAIR          PTCLDY    81  65  58 S15       29.91R
FREMONT        CLEAR     81  66  60 SE14      29.89R
MILLARD        PTCLDY    80  69  69 SE7       29.90R
OFFUTT AFB     PTCLDY    77  69  76 SE8       29.91R
PLATTSMOUTH    PTCLDY    77  65  67 SE10      29.92R
WAHOO          FAIR      74  68  81 SE8       29.88S
$$




USA.gov is the U.S. government's official web portal to all federal, state and local government web resources and services.